Terug naar catalogus

SL-8 DEB

ActiefPO
NORAD 29286·DEBRIS·🇷🇺 Russia

Gelanceerd Dec 17, 1981 vanaf Plesetsk Cosmodrome

Loading…

Volgende Passages (komende 24 uur)

TLE

VersSource: Space-Track

Epoch: Sep 13, 2026, 03:58 UTC

1 29286U 81120Q   26256.16530477 -.00000082  00000-0 -10498-2 0  9999
2 29286  82.9758  39.8457 0001257 291.7614 188.1534 12.06032410598213

Volg SL-8 DEB in realtime met AllMySat

Download on the App Store